PTEAS SNRU-SIBZ

Flight info

Callsign PTEAS
Flight time 0h 56m
Altitude 6500
Route 0815S03558W DCT 0809S03622W 0752S03708W 0744S03738W 0741S03758W DCT 0731S03803W
Aircraft DA62/L-SDFGRY/C

Departure

Time 2026-04-12 14:10
Airport Caruaru Airport (SNRU)

Arrival

Time 2026-04-12 15:06
Airport Itaporanga Airport (SIBZ)
Time Latitude Longitude Altitude Speed Heading
2026-04-12 13:59 -8.28393 -36.01214 1846 ft 1 kts
2026-04-12 13:59 -8.28408 -36.01219 1847 ft 2 kts 50°
2026-04-12 13:59 -8.28410 -36.01227 1844 ft 0 kts 97°
2026-04-12 14:02 -8.28416 -36.01192 1843 ft 8 kts 105°
2026-04-12 14:03 -8.28432 -36.01139 1841 ft 8 kts 107°
2026-04-12 14:03 -8.28401 -36.01121 1840 ft 8 kts 317°
2026-04-12 14:03 -8.28371 -36.01163 1841 ft 7 kts 302°
2026-04-12 14:03 -8.28370 -36.01165 1842 ft 0 kts 302°
2026-04-12 14:04 -8.28355 -36.01188 1843 ft 13 kts 301°
2026-04-12 14:05 -8.28308 -36.01264 1846 ft 13 kts 302°
2026-04-12 14:05 -8.28260 -36.01340 1848 ft 13 kts 302°
2026-04-12 14:05 -8.28205 -36.01471 1854 ft 15 kts 284°
2026-04-12 14:06 -8.28202 -36.01482 1855 ft 15 kts 284°
2026-04-12 14:06 -8.28176 -36.01580 1861 ft 14 kts 285°
2026-04-12 14:06 -8.28149 -36.01684 1866 ft 17 kts 285°
2026-04-12 14:06 -8.28118 -36.01806 1869 ft 20 kts 284°
2026-04-12 14:07 -8.28081 -36.01941 1874 ft 19 kts 284°
2026-04-12 14:07 -8.28058 -36.02057 1877 ft 16 kts 267°
2026-04-12 14:07 -8.28054 -36.02136 1877 ft 10 kts 339°
2026-04-12 14:07 -8.28035 -36.02108 1877 ft 0 kts 105°
2026-04-12 14:08 -8.28059 -36.02023 1876 ft 41 kts 106°
2026-04-12 14:08 -8.28176 -36.01571 1871 ft 87 kts 107°
2026-04-12 14:08 -8.28326 -36.00908 1974 ft 103 kts 102°
2026-04-12 14:08 -8.28476 -36.00145 1927 ft 123 kts 106°
2026-04-12 14:09 -8.28663 -35.99269 1914 ft 132 kts 104°
2026-04-12 14:09 -8.28867 -35.98389 2067 ft 128 kts 103°
2026-04-12 14:09 -8.29094 -35.97498 2081 ft 138 kts 105°
2026-04-12 14:09 -8.29315 -35.96557 2334 ft 135 kts 106°
2026-04-12 14:10 -8.29524 -35.95660 2686 ft 132 kts 100°
2026-04-12 14:10 -8.29272 -35.94792 2985 ft 137 kts 50°
2026-04-12 14:10 -8.28373 -35.94428 3276 ft 146 kts 15°
2026-04-12 14:10 -8.27361 -35.94235 3493 ft 149 kts 15°
2026-04-12 14:11 -8.26359 -35.94034 3698 ft 149 kts 14°
2026-04-12 14:11 -8.25318 -35.94005 3951 ft 155 kts 342°
2026-04-12 14:11 -8.24565 -35.94739 4185 ft 155 kts 291°
2026-04-12 14:11 -8.24251 -35.95783 4435 ft 156 kts 283°
2026-04-12 14:12 -8.23952 -35.96832 4707 ft 155 kts 283°
2026-04-12 14:12 -8.23656 -35.97887 4946 ft 157 kts 283°
2026-04-12 14:12 -8.23355 -35.98956 5193 ft 159 kts 283°
2026-04-12 14:12 -8.23053 -36.00017 5514 ft 157 kts 283°
2026-04-12 14:13 -8.22810 -36.01096 5758 ft 159 kts 276°
2026-04-12 14:13 -8.22653 -36.02198 6020 ft 158 kts 276°
2026-04-12 14:13 -8.22503 -36.03295 6286 ft 157 kts 276°
2026-04-12 14:13 -8.22356 -36.04409 6403 ft 168 kts 275°
2026-04-12 14:14 -8.22197 -36.05634 6410 ft 183 kts 277°
2026-04-12 14:14 -8.22049 -36.06932 6410 ft 194 kts 270°
2026-04-12 14:14 -8.22017 -36.08321 6402 ft 200 kts 273°
2026-04-12 14:14 -8.21793 -36.09724 6396 ft 204 kts 281°
2026-04-12 14:15 -8.21451 -36.11111 6386 ft 202 kts 283°
2026-04-12 14:15 -8.21106 -36.12459 6398 ft 197 kts 283°
2026-04-12 14:15 -8.20733 -36.13778 6398 ft 193 kts 284°
2026-04-12 14:15 -8.20354 -36.15072 6403 ft 192 kts 285°
2026-04-12 14:16 -8.19989 -36.16383 6395 ft 194 kts 283°
2026-04-12 14:16 -8.19655 -36.17700 6397 ft 194 kts 283°
2026-04-12 14:16 -8.19342 -36.19019 6397 ft 193 kts 281°
2026-04-12 14:16 -8.19039 -36.20334 6398 ft 192 kts 282°
2026-04-12 14:17 -8.18734 -36.21643 6391 ft 191 kts 283°
2026-04-12 14:17 -8.18400 -36.22937 6393 ft 191 kts 283°
2026-04-12 14:17 -8.18070 -36.24178 6391 ft 192 kts 284°
2026-04-12 14:17 -8.17714 -36.25493 6400 ft 196 kts 284°
2026-04-12 14:18 -8.17387 -36.26833 6394 ft 199 kts 282°
2026-04-12 14:18 -8.17110 -36.28051 6398 ft 196 kts 282°
2026-04-12 14:18 -8.16801 -36.29433 6400 ft 196 kts 281°
2026-04-12 14:18 -8.16480 -36.30770 6392 ft 195 kts 283°
2026-04-12 14:19 -8.16125 -36.32083 6401 ft 193 kts 283°
2026-04-12 14:19 -8.15773 -36.33371 6402 ft 194 kts 283°
2026-04-12 14:19 -8.15439 -36.34706 6403 ft 198 kts 281°
2026-04-12 14:19 -8.15110 -36.36057 6388 ft 197 kts 283°
2026-04-12 14:20 -8.14739 -36.37357 6397 ft 195 kts 289°
2026-04-12 14:20 -8.14246 -36.38621 6396 ft 192 kts 289°
2026-04-12 14:20 -8.13786 -36.39885 6395 ft 192 kts 288°
2026-04-12 14:20 -8.13349 -36.41157 6394 ft 192 kts 288°
2026-04-12 14:21 -8.12894 -36.42406 6401 ft 187 kts 289°
2026-04-12 14:21 -8.12427 -36.43639 6410 ft 189 kts 289°
2026-04-12 14:21 -8.11951 -36.44889 6406 ft 192 kts 290°
2026-04-12 14:21 -8.11462 -36.46155 6400 ft 194 kts 290°
2026-04-12 14:22 -8.10983 -36.47427 6401 ft 193 kts 289°
2026-04-12 14:22 -8.10503 -36.48691 6402 ft 194 kts 290°
2026-04-12 14:22 -8.10065 -36.49977 6396 ft 193 kts 286°
2026-04-12 14:22 -8.09629 -36.51252 6395 ft 192 kts 288°
2026-04-12 14:23 -8.09160 -36.52513 6399 ft 193 kts 290°
2026-04-12 14:23 -8.08687 -36.53784 6398 ft 194 kts 290°
2026-04-12 14:23 -8.08220 -36.55057 6402 ft 194 kts 289°
2026-04-12 14:23 -8.07748 -36.56335 6402 ft 195 kts 290°
2026-04-12 14:24 -8.07297 -36.57631 6398 ft 197 kts 288°
2026-04-12 14:24 -8.06842 -36.58929 6395 ft 195 kts 289°
2026-04-12 14:24 -8.06390 -36.60212 6398 ft 194 kts 289°
2026-04-12 14:24 -8.05907 -36.61488 6392 ft 195 kts 290°
2026-04-12 14:25 -8.05402 -36.62751 6396 ft 194 kts 291°
2026-04-12 14:25 -8.04911 -36.64013 6395 ft 192 kts 290°
2026-04-12 14:25 -8.04421 -36.65264 6389 ft 192 kts 290°
2026-04-12 14:25 -8.03943 -36.66513 6391 ft 191 kts 289°
2026-04-12 14:26 -8.03486 -36.67775 6393 ft 191 kts 287°
2026-04-12 14:26 -8.03046 -36.69042 6391 ft 193 kts 288°
2026-04-12 14:26 -8.02608 -36.70322 6391 ft 193 kts 287°
2026-04-12 14:26 -8.02172 -36.71605 6390 ft 194 kts 288°
2026-04-12 14:27 -8.01735 -36.72894 6388 ft 194 kts 287°
2026-04-12 14:27 -8.01295 -36.74182 6385 ft 194 kts 288°
2026-04-12 14:27 -8.00813 -36.75449 6386 ft 194 kts 290°
2026-04-12 14:27 -8.00317 -36.76711 6385 ft 194 kts 290°
2026-04-12 14:28 -7.99816 -36.77975 6391 ft 194 kts 291°
2026-04-12 14:28 -7.99319 -36.79248 6394 ft 195 kts 290°
2026-04-12 14:28 -7.98815 -36.80536 6395 ft 200 kts 291°
2026-04-12 14:28 -7.98315 -36.81846 6391 ft 199 kts 290°
2026-04-12 14:29 -7.97808 -36.83145 6387 ft 199 kts 290°
2026-04-12 14:29 -7.97332 -36.84428 6380 ft 192 kts 290°
2026-04-12 14:29 -7.96882 -36.85653 6370 ft 185 kts 289°
2026-04-12 14:29 -7.96441 -36.86850 6379 ft 180 kts 290°
2026-04-12 14:30 -7.96000 -36.88031 6379 ft 180 kts 289°
2026-04-12 14:30 -7.95556 -36.89202 6379 ft 178 kts 289°
2026-04-12 14:30 -7.95104 -36.90379 6390 ft 184 kts 290°
2026-04-12 14:30 -7.94658 -36.91612 6388 ft 190 kts 288°
2026-04-12 14:31 -7.94215 -36.92865 6385 ft 188 kts 288°
2026-04-12 14:31 -7.93775 -36.94103 6387 ft 187 kts 288°
2026-04-12 14:31 -7.93339 -36.95340 6382 ft 187 kts 288°
2026-04-12 14:31 -7.92912 -36.96569 6383 ft 185 kts 288°
2026-04-12 14:32 -7.92478 -36.97765 6379 ft 185 kts 290°
2026-04-12 14:32 -7.92014 -36.98969 6380 ft 185 kts 290°
2026-04-12 14:32 -7.91561 -37.00178 6380 ft 184 kts 290°
2026-04-12 14:32 -7.91113 -37.01388 6383 ft 184 kts 290°
2026-04-12 14:33 -7.90657 -37.02588 6382 ft 183 kts 290°
2026-04-12 14:33 -7.90188 -37.03785 6380 ft 184 kts 290°
2026-04-12 14:33 -7.89719 -37.04983 6386 ft 183 kts 291°
2026-04-12 14:33 -7.89258 -37.06180 6386 ft 183 kts 289°
2026-04-12 14:34 -7.88801 -37.07381 6387 ft 184 kts 289°
2026-04-12 14:34 -7.88352 -37.08592 6385 ft 184 kts 289°
2026-04-12 14:34 -7.87931 -37.09771 6386 ft 185 kts 288°
2026-04-12 14:34 -7.87495 -37.11019 6386 ft 185 kts 288°
2026-04-12 14:35 -7.87068 -37.12240 6385 ft 185 kts 288°
2026-04-12 14:35 -7.86686 -37.13476 6388 ft 185 kts 284°
2026-04-12 14:35 -7.86320 -37.14696 6390 ft 184 kts 285°
2026-04-12 14:35 -7.85943 -37.15929 6390 ft 184 kts 285°
2026-04-12 14:36 -7.85569 -37.17164 6393 ft 184 kts 284°
2026-04-12 14:36 -7.85238 -37.18354 6392 ft 184 kts 284°
2026-04-12 14:36 -7.84907 -37.19603 6391 ft 184 kts 283°
2026-04-12 14:36 -7.84602 -37.20819 6393 ft 184 kts 282°
2026-04-12 14:37 -7.84298 -37.22022 6387 ft 185 kts 282°
2026-04-12 14:37 -7.83980 -37.23278 6386 ft 185 kts 283°
2026-04-12 14:37 -7.83663 -37.24532 6397 ft 185 kts 282°
2026-04-12 14:37 -7.83336 -37.25787 6398 ft 186 kts 282°
2026-04-12 14:38 -7.83008 -37.27042 6393 ft 184 kts 283°
2026-04-12 14:38 -7.82689 -37.28297 6392 ft 185 kts 282°
2026-04-12 14:38 -7.82363 -37.29550 6392 ft 185 kts 282°
2026-04-12 14:38 -7.82034 -37.30801 6391 ft 184 kts 283°
2026-04-12 14:39 -7.81711 -37.32049 6387 ft 183 kts 282°
2026-04-12 14:39 -7.81385 -37.33290 6391 ft 183 kts 283°
2026-04-12 14:39 -7.81059 -37.34532 6391 ft 184 kts 283°
2026-04-12 14:39 -7.80716 -37.35773 6388 ft 183 kts 283°
2026-04-12 14:40 -7.80483 -37.36580 6447 ft 178 kts 284°
2026-04-12 14:40 -7.80035 -37.38180 6495 ft 179 kts 283°
2026-04-12 14:40 -7.79692 -37.39400 6496 ft 182 kts 284°
2026-04-12 14:40 -7.79348 -37.40631 6496 ft 183 kts 283°
2026-04-12 14:41 -7.79016 -37.41868 6492 ft 183 kts 283°
2026-04-12 14:41 -7.78693 -37.43108 6493 ft 183 kts 282°
2026-04-12 14:41 -7.78375 -37.44350 6494 ft 183 kts 282°
2026-04-12 14:41 -7.78048 -37.45596 6492 ft 184 kts 282°
2026-04-12 14:42 -7.77719 -37.46842 6495 ft 184 kts 282°
2026-04-12 14:42 -7.77396 -37.48085 6492 ft 184 kts 282°
2026-04-12 14:42 -7.77062 -37.49331 6492 ft 184 kts 282°
2026-04-12 14:42 -7.76741 -37.50533 6492 ft 184 kts 282°
2026-04-12 14:43 -7.76403 -37.51806 6495 ft 184 kts 282°
2026-04-12 14:43 -7.76084 -37.52992 6496 ft 184 kts 282°
2026-04-12 14:43 -7.75751 -37.54221 6495 ft 184 kts 282°
2026-04-12 14:43 -7.75432 -37.55474 6499 ft 185 kts 282°
2026-04-12 14:44 -7.75222 -37.56312 6496 ft 187 kts 282°
2026-04-12 14:44 -7.74893 -37.57575 6493 ft 186 kts 283°
2026-04-12 14:44 -7.74569 -37.58827 6493 ft 183 kts 282°
2026-04-12 14:44 -7.74253 -37.60068 6496 ft 183 kts 283°
2026-04-12 14:45 -7.73904 -37.61309 6496 ft 184 kts 284°
2026-04-12 14:45 -7.73545 -37.62547 6496 ft 184 kts 284°
2026-04-12 14:45 -7.73213 -37.63788 6497 ft 183 kts 279°
2026-04-12 14:45 -7.73038 -37.65056 6496 ft 183 kts 275°
2026-04-12 14:46 -7.72851 -37.66323 6495 ft 183 kts 276°
2026-04-12 14:46 -7.72643 -37.67590 6497 ft 184 kts 277°
2026-04-12 14:46 -7.72437 -37.68867 6496 ft 185 kts 277°
2026-04-12 14:46 -7.72238 -37.70144 6494 ft 184 kts 276°
2026-04-12 14:47 -7.72037 -37.71418 6494 ft 184 kts 276°
2026-04-12 14:47 -7.71829 -37.72693 6495 ft 184 kts 277°
2026-04-12 14:47 -7.71632 -37.73967 6500 ft 184 kts 276°
2026-04-12 14:47 -7.71438 -37.75252 6497 ft 187 kts 274°
2026-04-12 14:48 -7.71251 -37.76549 6495 ft 186 kts 275°
2026-04-12 14:48 -7.71080 -37.77837 6493 ft 185 kts 274°
2026-04-12 14:48 -7.70904 -37.79115 6499 ft 182 kts 275°
2026-04-12 14:48 -7.70746 -37.80382 6496 ft 182 kts 274°
2026-04-12 14:49 -7.70582 -37.81653 6495 ft 183 kts 275°
2026-04-12 14:49 -7.70399 -37.82919 6494 ft 183 kts 275°
2026-04-12 14:49 -7.70185 -37.84189 6494 ft 184 kts 276°
2026-04-12 14:49 -7.69982 -37.85464 6493 ft 184 kts 275°
2026-04-12 14:50 -7.69781 -37.86725 6493 ft 182 kts 276°
2026-04-12 14:50 -7.69619 -37.87989 6491 ft 181 kts 274°
2026-04-12 14:50 -7.69450 -37.89247 6484 ft 181 kts 275°
2026-04-12 14:50 -7.69256 -37.90501 6487 ft 181 kts 275°
2026-04-12 14:51 -7.69058 -37.91753 6482 ft 181 kts 276°
2026-04-12 14:51 -7.68866 -37.93001 6487 ft 181 kts 275°
2026-04-12 14:51 -7.68694 -37.94264 6486 ft 182 kts 274°
2026-04-12 14:51 -7.68524 -37.95528 6488 ft 182 kts 275°
2026-04-12 14:52 -7.68324 -37.96789 6487 ft 183 kts 278°
2026-04-12 14:52 -7.67667 -37.97882 6480 ft 187 kts 320°
2026-04-12 14:52 -7.66469 -37.98365 6485 ft 187 kts 348°
2026-04-12 14:52 -7.65197 -37.98633 6482 ft 186 kts 349°
2026-04-12 14:53 -7.63931 -37.98945 6482 ft 188 kts 341°
2026-04-12 14:53 -7.62739 -37.99484 6476 ft 187 kts 333°
2026-04-12 14:53 -7.61597 -38.00095 6474 ft 186 kts 333°
2026-04-12 14:53 -7.60482 -38.00673 6476 ft 180 kts 333°
2026-04-12 14:54 -7.59380 -38.01238 6479 ft 172 kts 334°
2026-04-12 14:54 -7.58358 -38.01757 6472 ft 162 kts 333°
2026-04-12 14:54 -7.57370 -38.02258 6469 ft 151 kts 334°
2026-04-12 14:54 -7.56477 -38.02725 6471 ft 144 kts 333°
2026-04-12 14:55 -7.55587 -38.03186 6471 ft 143 kts 333°
2026-04-12 14:55 -7.54705 -38.03641 6477 ft 141 kts 334°
2026-04-12 14:55 -7.53825 -38.04088 6323 ft 138 kts 333°
2026-04-12 14:55 -7.52989 -38.04520 6143 ft 135 kts 333°
2026-04-12 14:56 -7.52126 -38.04890 5976 ft 136 kts 343°
2026-04-12 14:56 -7.51200 -38.05192 5812 ft 144 kts 343°
2026-04-12 14:56 -7.50232 -38.05498 5647 ft 146 kts 343°
2026-04-12 14:56 -7.49273 -38.05796 5470 ft 142 kts 344°
2026-04-12 14:57 -7.48354 -38.06095 5297 ft 136 kts 343°
2026-04-12 14:57 -7.47465 -38.06382 5128 ft 133 kts 343°
2026-04-12 14:57 -7.46620 -38.06714 4956 ft 129 kts 329°
2026-04-12 14:57 -7.45860 -38.07162 4788 ft 125 kts 329°
2026-04-12 14:58 -7.45104 -38.07602 4622 ft 126 kts 329°
2026-04-12 14:58 -7.44344 -38.08043 4450 ft 126 kts 329°
2026-04-12 14:58 -7.43584 -38.08488 4273 ft 126 kts 330°
2026-04-12 14:58 -7.42839 -38.08930 4105 ft 123 kts 329°
2026-04-12 14:59 -7.42103 -38.09358 3934 ft 121 kts 330°
2026-04-12 14:59 -7.41379 -38.09781 3760 ft 120 kts 330°
2026-04-12 14:59 -7.40653 -38.10213 3593 ft 123 kts 329°
2026-04-12 14:59 -7.39905 -38.10649 3427 ft 125 kts 329°
2026-04-12 15:00 -7.38375 -38.11532 3094 ft 127 kts 330°
2026-04-12 15:00 -7.37636 -38.11957 2934 ft 120 kts 329°
2026-04-12 15:00 -7.36915 -38.12353 2758 ft 116 kts 329°
2026-04-12 15:01 -7.36253 -38.12776 2581 ft 113 kts 308°
2026-04-12 15:01 -7.35889 -38.13469 2423 ft 114 kts 294°
2026-04-12 15:01 -7.35536 -38.14149 2383 ft 102 kts 294°
2026-04-12 15:01 -7.35228 -38.14756 2381 ft 95 kts 295°
2026-04-12 15:02 -7.34933 -38.15339 2378 ft 93 kts 295°
2026-04-12 15:02 -7.34637 -38.15925 2381 ft 96 kts 295°
2026-04-12 15:02 -7.34329 -38.16525 2391 ft 97 kts 295°
2026-04-12 15:02 -7.33985 -38.17130 2387 ft 104 kts 311°
2026-04-12 15:03 -7.33306 -38.17259 2376 ft 105 kts 24°
2026-04-12 15:03 -7.32639 -38.16972 2375 ft 105 kts 25°
2026-04-12 15:03 -7.31974 -38.16701 2375 ft 102 kts 25°
2026-04-12 15:03 -7.31336 -38.16436 2395 ft 101 kts 23°
2026-04-12 15:04 -7.30689 -38.16153 2397 ft 102 kts 25°
2026-04-12 15:04 -7.30036 -38.15876 2384 ft 102 kts 26°
2026-04-12 15:04 -7.29404 -38.15549 2365 ft 101 kts 52°
2026-04-12 15:04 -7.29359 -38.14925 2396 ft 94 kts 120°
2026-04-12 15:05 -7.29640 -38.14330 2027 ft 96 kts 118°
2026-04-12 15:05 -7.29950 -38.13762 1713 ft 88 kts 121°
2026-04-12 15:05 -7.30239 -38.13228 1422 ft 85 kts 118°
2026-04-12 15:05 -7.30482 -38.12706 1238 ft 83 kts 118°
2026-04-12 15:06 -7.30730 -38.12194 1034 ft 80 kts 118°
2026-04-12 15:06 -7.30965 -38.11710 929 ft 73 kts 117°
2026-04-12 15:06 -7.31101 -38.11397 919 ft 14 kts 122°
2026-04-12 15:06 -7.31104 -38.11371 919 ft 4 kts 306°
2026-04-12 15:07 -7.31090 -38.11391 918 ft 3 kts 323°
2026-04-12 15:07 -7.31078 -38.11389 922 ft 1 kts 57°
2026-04-12 15:07 -7.31078 -38.11388 922 ft 0 kts 68°
2026-04-12 15:07 -7.31078 -38.11384 922 ft 1 kts 98°
2026-04-12 15:08 -7.31079 -38.11382 921 ft 0 kts 120°
2026-04-12 15:08 -7.31080 -38.11380 921 ft 0 kts 128°